Date String (YYYY-MM-DD hh:mm:ss) UTC,Instrument flags,absolute air pressure of the measurement (hPa),sample flow rate (lpm),inlet stack bypass flow (lpm),air temperature of the measurement (°C),ambient temperature measured by the external sensor (°C),aerosol sample conditioner tube jacket temperature (°C),OPC LED temperature (°C),internal box temperature (°C),relative humidity of the measurement (%),span deviation,mass concentration of particles derived from Lorenz-Mie calculation of OPC scattering (μg/m³),mass concentration of particles derived from Lorenz-Mie calculation of OPC scattering (μg/m³),mass concentration of particles derived from Lorenz-Mie calculation of OPC scattering (μg/m³)
DateTimeUTC,F1_M11,P_M11,Q1_M11,Q2_M11,T1_M11,T2_M11,T3_M11,T4_M11,T5_M11,U1_M11,ZSPAN_M11,X2_M11,X0_M11,X1_M11
2023-06-30 23:00:00,SystemResetWarning,0833.4,4.99,000.00,029.9,027.8,000.0,038.2,031.3,26.7,0000.0,0003.63,0007.70,0003.22
2023-06-30 23:01:00,SystemResetWarning,0833.4,4.99,000.00,029.8,026.1,000.0,038.1,031.0,26.7,0000.0,0003.64,0007.79,0003.22
2023-06-30 23:02:00,SystemResetWarning,0833.4,5.01,000.00,029.7,025.5,000.0,038.0,030.8,26.7,0000.0,0003.62,0008.18,0003.22
2023-06-30 23:03:00,SystemResetWarning,0833.4,5.00,000.00,029.6,025.7,000.0,038.0,030.6,27.8,0000.0,0003.61,0008.10,0003.22
2023-06-30 23:04:00,SystemResetWarning,0833.4,4.98,000.00,029.5,026.0,000.0,038.1,030.6,28.5,0000.0,0003.62,0008.10,0003.22
2023-06-30 23:05:00,SystemResetWarning,0833.4,5.00,000.00,029.5,026.4,000.0,038.1,030.7,29.3,0000.0,0003.62,0008.08,0003.22
2023-06-30 23:06:00,SystemResetWarning,0833.4,5.01,000.00,029.5,026.8,000.0,038.1,030.8,29.2,0000.0,0003.64,0008.13,0003.22
2023-06-30 23:07:00,SystemResetWarning,0833.4,5.01,000.00,029.5,027.1,000.0,038.1,030.8,28.9,0000.0,0003.67,0008.27,0003.22
2023-06-30 23:08:00,SystemResetWarning,0833.4,5.00,000.00,029.5,027.3,000.0,038.1,030.9,29.0,0000.0,0003.70,0007.54,0003.22
2023-06-30 23:09:00,SystemResetWarning,0833.5,4.99,000.00,029.5,027.5,000.0,038.1,030.9,27.7,0000.0,0003.73,0007.47,0003.22
2023-06-30 23:10:00,SystemResetWarning,0833.6,4.99,000.00,029.5,027.7,000.0,038.1,031.0,27.5,0000.0,0003.72,0007.29,0003.22
2023-06-30 23:11:00,SystemResetWarning,0833.5,5.00,000.00,029.5,027.9,000.0,038.1,031.0,28.1,0000.0,0003.71,0007.21,0003.22
2023-06-30 23:12:00,SystemResetWarning,0833.5,5.01,000.00,029.6,028.0,000.0,038.1,031.0,29.2,0000.0,0003.71,0007.22,0003.21
2023-06-30 23:13:00,SystemResetWarning,0833.5,5.01,000.00,029.6,028.1,000.0,038.1,031.1,28.8,0000.0,0003.72,0006.99,0003.20
2023-06-30 23:14:00,SystemResetWarning,0833.5,5.01,000.00,029.6,028.2,000.0,038.1,031.1,28.7,0000.0,0003.72,0006.87,0003.19
2023-06-30 23:15:00,SystemResetWarning,0833.5,4.99,000.00,029.6,028.3,000.0,038.1,031.2,29.1,0000.0,0003.73,0006.91,0003.18
2023-06-30 23:16:00,SystemResetWarning,0833.6,4.99,000.00,029.7,028.4,000.0,038.1,031.2,29.7,0000.0,0003.74,0007.16,0003.18
2023-06-30 23:17:00,SystemResetWarning,0833.6,5.00,000.00,029.7,028.4,000.0,038.1,031.2,29.9,0000.0,0003.75,0007.52,0003.17
2023-06-30 23:18:00,SystemResetWarning,0833.5,5.00,000.00,029.7,028.5,000.0,038.2,031.3,30.9,0000.0,0003.75,0007.57,0003.18
2023-06-30 23:19:00,SystemResetWarning,0833.5,5.00,000.00,029.7,028.1,000.0,038.1,031.3,31.1,0000.0,0003.72,0007.50,0003.17
2023-06-30 23:20:00,SystemResetWarning,0833.4,5.01,000.00,029.7,026.3,000.0,038.0,031.1,30.7,0000.0,0003.72,0008.32,0003.18
2023-06-30 23:21:00,SystemResetWarning,0833.5,5.00,000.00,029.6,025.5,000.0,037.9,030.8,30.4,0000.0,0003.71,0008.25,0003.18
2023-06-30 23:22:00,SystemResetWarning,0833.5,5.01,000.00,029.5,025.6,000.0,037.9,030.6,31.7,0000.0,0003.74,0008.37,0003.19
2023-06-30 23:23:00,SystemResetWarning,0833.5,5.00,000.00,029.4,025.9,000.0,037.9,030.6,30.9,0000.0,0003.74,0008.47,0003.19
2023-06-30 23:24:00,SystemResetWarning,0833.5,4.98,000.00,029.4,026.3,000.0,038.0,030.7,31.5,0000.0,0003.72,0008.19,0003.19
2023-06-30 23:25:00,SystemResetWarning,0833.5,5.01,000.00,029.4,026.7,000.0,038.0,030.7,31.8,0000.0,0003.74,0008.20,0003.20
2023-06-30 23:26:00,SystemResetWarning,0833.4,5.01,000.00,029.4,027.0,000.0,038.0,030.8,30.3,0000.0,0003.74,0008.25,0003.19
2023-06-30 23:27:00,SystemResetWarning,0833.4,5.00,000.00,029.4,027.3,000.0,038.0,030.9,29.3,0000.0,0003.71,0008.14,0003.18
2023-06-30 23:28:00,SystemResetWarning,0833.5,4.99,000.00,029.4,027.5,000.0,038.0,030.9,29.5,0000.0,0003.71,0007.90,0003.17
2023-06-30 23:29:00,SystemResetWarning,0833.4,5.00,000.00,029.4,027.7,000.0,038.0,031.0,30.1,0000.0,0003.67,0007.65,0003.15
2023-06-30 23:30:00,SystemResetWarning,0833.4,5.00,000.00,029.5,027.9,000.0,038.0,031.0,30.1,0000.0,0003.66,0007.63,0003.14
2023-06-30 23:31:00,SystemResetWarning,0833.4,5.00,000.00,029.5,028.0,000.0,038.0,031.0,29.9,0000.0,0003.63,0006.43,0003.12
2023-06-30 23:32:00,SystemResetWarning,0833.4,5.00,000.00,029.5,028.1,000.0,038.0,031.1,32.9,0000.0,0003.63,0006.32,0003.10
2023-06-30 23:33:00,SystemResetWarning,0833.4,5.00,000.00,029.5,028.2,000.0,038.0,031.1,33.1,0000.0,0003.64,0006.34,0003.09
2023-06-30 23:34:00,SystemResetWarning,0833.4,5.01,000.00,029.6,028.3,000.0,038.0,031.2,33.3,0000.0,0003.64,0006.10,0003.10
2023-06-30 23:35:00,SystemResetWarning,0833.4,5.01,000.00,029.6,028.4,000.0,038.1,031.2,33.0,0000.0,0003.66,0006.09,0003.12
2023-06-30 23:36:00,SystemResetWarning,0833.5,5.00,000.00,029.6,028.5,000.0,038.1,031.3,32.6,0000.0,0003.66,0006.10,0003.14
2023-06-30 23:37:00,SystemResetWarning,0833.6,5.00,000.00,029.7,028.3,000.0,038.1,031.3,32.9,0000.0,0003.69,0006.12,0003.16
2023-06-30 23:38:00,SystemResetWarning,0833.6,4.98,000.00,029.7,026.6,000.0,038.0,031.1,32.5,0000.0,0003.72,0006.18,0003.19
2023-06-30 23:39:00,SystemResetWarning,0833.5,5.02,000.00,029.6,025.6,000.0,037.9,030.9,32.0,0000.0,0003.71,0006.21,0003.21
2023-06-30 23:40:00,SystemResetWarning,0833.5,5.01,000.00,029.5,025.5,000.0,037.9,030.6,32.2,0000.0,0003.70,0006.26,0003.22
2023-06-30 23:41:00,SystemResetWarning,0833.5,4.99,000.00,029.4,025.9,000.0,037.9,030.6,32.6,0000.0,0003.72,0006.36,0003.24
2023-06-30 23:42:00,SystemResetWarning,0833.4,4.99,000.00,029.3,026.3,000.0,037.9,030.7,32.7,0000.0,0003.73,0006.26,0003.27
2023-06-30 23:43:00,SystemResetWarning,0833.4,5.01,000.00,029.3,026.6,000.0,037.9,030.8,32.9,0000.0,0003.75,0006.57,0003.29
2023-06-30 23:44:00,SystemResetWarning,0833.5,5.00,000.00,029.3,027.0,000.0,037.9,030.8,33.3,0000.0,0003.75,0006.97,0003.30
2023-06-30 23:45:00,SystemResetWarning,0833.4,5.00,000.00,029.4,027.3,000.0,037.9,030.9,32.9,0000.0,0003.75,0006.94,0003.30
2023-06-30 23:46:00,SystemResetWarning,0833.5,5.01,000.00,029.4,027.5,000.0,037.9,030.9,31.5,0000.0,0003.76,0007.07,0003.31
2023-06-30 23:47:00,SystemResetWarning,0833.4,4.99,000.00,029.4,027.7,000.0,037.9,031.0,31.8,0000.0,0003.77,0007.10,0003.31
2023-06-30 23:48:00,SystemResetWarning,0833.5,5.00,000.00,029.4,027.9,000.0,038.0,031.0,32.8,0000.0,0003.75,0007.06,0003.31
2023-06-30 23:49:00,SystemResetWarning,0833.6,5.00,000.00,029.5,028.0,000.0,038.0,031.1,32.6,0000.0,0003.75,0007.74,0003.31
2023-06-30 23:50:00,SystemResetWarning,0833.5,5.00,000.00,029.5,028.2,000.0,038.0,031.1,31.5,0000.0,0003.75,0007.78,0003.31
2023-06-30 23:51:00,SystemResetWarning,0833.6,5.00,000.00,029.5,028.3,000.0,038.0,031.2,30.8,0000.0,0003.81,0007.86,0003.32
2023-06-30 23:52:00,SystemResetWarning,0833.5,5.01,000.00,029.6,028.4,000.0,038.0,031.2,30.8,0000.0,0003.88,0008.02,0003.34
2023-06-30 23:53:00,SystemResetWarning,0833.5,5.01,000.00,029.6,028.4,000.0,038.0,031.2,31.0,0000.0,0003.89,0008.10,0003.35
2023-06-30 23:54:00,SystemResetWarning,0833.5,4.99,000.00,029.6,028.5,000.0,038.1,031.3,31.3,0000.0,0003.92,0008.04,0003.37
2023-06-30 23:55:00,SystemResetWarning,0833.4,4.99,000.00,029.7,028.6,000.0,038.1,031.3,31.3,0000.0,0003.91,0007.76,0003.38
2023-06-30 23:56:00,SystemResetWarning,0833.4,5.00,000.00,029.7,027.9,000.0,038.0,031.2,32.0,0000.0,0003.96,0008.06,0003.41
2023-06-30 23:57:00,SystemResetWarning,0833.4,5.01,000.00,029.6,026.2,000.0,037.9,031.0,32.3,0000.0,0004.00,0008.53,0003.45
2023-06-30 23:58:00,SystemResetWarning,0833.4,5.01,000.00,029.5,025.6,000.0,037.9,030.8,32.8,0000.0,0004.08,0008.67,0003.50
2023-06-30 23:59:00,SystemResetWarning,0833.4,5.01,000.00,029.4,025.7,000.0,037.9,030.6,33.7,0000.0,0004.15,0009.14,0003.53
